Погода в Мезрае

Тунис     33°51′05″N   10°58′14″E
темп.,
°C
ветер,
м/с
пор.,
м/с
влажн.,
%
обл.,
%
осадки,
мм/ч
давл.,
гПа
погр.,
м
3 августа, вт
вт301:00+28всв34795 0.0 101275
04:00+27в57802 0.0 1012137
07:00+29вюв67710 0.0 1012182
10:00+32в33500 0.0 1014289
13:00+35всв54360 0.0 1013401
16:00+33всв78450 0.0 1011205
19:00+30в914680 0.0 1011193
22:00+29вюв814680 0.0 1013234
4 августа, ср
ср401:00+29юв611730 0.0 1012231
04:00+29юв57670 0.0 101176
07:00+31ююв57460 0.0 1012124
10:00+35ююв56300 0.0 1013286
13:00+36вюв66310 0.0 1012463
16:00+36в89370 0.0 1010191
19:00+31в610594 0.0 1010139
22:00+31вюв6126433 0.0 1011140
5 августа, чт
чт501:00+30юв45660 0.0 101056
04:00+30ююв44580 0.0 100926
07:00+28св89820 0.0 1011204
10:00+30ссв87730 0.0 1013446
13:00+30ссв86710 0.0 1013514
16:00+29св89680 0.0 1011424
19:00+28всв710690 0.0 1011397
22:00+27вюв56740 0.0 1012265
6 августа, пт
пт601:00+27св45750 0.0 1011187
04:00+27ссв45740 0.0 1010220
07:00+28св45700 0.0 1011480
10:00+29всв54620 0.0 1012578
13:00+30в54580 0.0 1011550
16:00+30всв54580 0.0 1010470
19:00+28всв79740 0.0 1009307
22:00+28в58770 0.0 1011278
7 августа, сб
сб701:00+27юв56750 0.0 1010190
04:00+27юв56750 0.0 1009192
07:00+28вюв35700 0.0 1010334
10:00+31в55560 0.0 1011431
13:00+32вюв77540 0.0 1010413
16:00+31в78570 0.0 1009330
19:00+29вюв811700 0.0 1009228
22:00+28юв712770 0.0 1010267